Time,TemperatureF,DewpointF,PressureIn,WindDirection,WindDirectionDegrees,WindSpeedMPH,WindSpeedGustMPH,Humidity,HourlyPrecipIn,Conditions,Clouds,dailyrainin,SolarRadiationWatts/m^2,SoftwareType,DateUTC
2013-02-11 00:00:00,46.8,44.0,29.85,SSW,197,3.0,10.0,90,0.01,RA,,0.00,0.0,WeatherDisplay:10.37,2013-02-10 22:00:00,
2013-02-11 00:10:00,46.6,43.8,29.85,South,181,3.0,8.0,90,0.00,,,0.00,0.0,WeatherDisplay:10.37,2013-02-10 22:10:00,
2013-02-11 00:20:00,46.4,43.9,29.85,SE,143,1.0,6.0,91,0.00,CLR,,0.00,0.0,WeatherDisplay:10.37,2013-02-10 22:20:00,
2013-02-11 00:30:00,46.3,43.8,29.85,South,175,3.0,7.0,91,0.00,CLR,,0.00,0.0,WeatherDisplay:10.37,2013-02-10 22:30:00,
2013-02-11 00:40:00,46.4,43.7,29.85,SSW,211,3.0,8.0,90,0.00,CLR,,0.00,0.0,WeatherDisplay:10.37,2013-02-10 22:40:00,
2013-02-11 00:50:00,46.5,43.7,29.85,SSW,212,2.0,7.0,90,0.00,CLR,,0.00,0.0,WeatherDisplay:10.37,2013-02-10 22:50:00,
2013-02-11 01:00:00,46.4,43.9,29.85,SW,221,2.0,6.0,91,0.00,CLR,,0.00,0.0,WeatherDisplay:10.37,2013-02-10 23:00:00,
2013-02-11 01:10:00,46.4,43.9,29.85,SW,230,2.0,4.0,91,0.00,CLR,,0.00,0.0,WeatherDisplay:10.37,2013-02-10 23:10:00,
2013-02-11 01:20:00,46.3,43.8,29.85,SW,219,2.0,7.0,91,0.00,CLR,,0.00,0.0,WeatherDisplay:10.37,2013-02-10 23:20:00,
2013-02-11 01:30:00,46.3,43.8,29.85,SW,215,5.0,7.0,91,0.00,CLR,,0.00,0.0,WeatherDisplay:10.37,2013-02-10 23:30:00,
2013-02-11 01:40:00,46.2,43.7,29.85,WSW,241,2.0,8.0,91,0.00,CLR,,0.00,0.0,WeatherDisplay:10.37,2013-02-10 23:40:00,
2013-02-11 01:50:00,46.1,43.9,29.84,WSW,242,3.0,7.0,92,0.00,CLR,,0.00,0.0,WeatherDisplay:10.37,2013-02-10 23:50:00,
2013-02-11 02:00:00,46.0,43.6,29.85,SW,218,5.0,10.0,91,0.01,RA,,0.01,0.0,WeatherDisplay:10.37,2013-02-11 00:00:00,
2013-02-11 02:10:00,46.2,43.4,29.84,SSW,213,5.0,12.0,90,0.00,,,0.01,0.0,WeatherDisplay:10.37,2013-02-11 00:10:00,
2013-02-11 02:20:00,46.2,43.4,29.84,SSW,209,5.0,12.0,90,0.00,CLR,,0.01,0.0,WeatherDisplay:10.37,2013-02-11 00:20:00,
2013-02-11 02:30:00,46.1,43.0,29.84,SSW,199,5.0,10.0,89,0.00,CLR,,0.01,0.0,WeatherDisplay:10.37,2013-02-11 00:30:00,
2013-02-11 02:40:00,45.9,42.9,29.84,SSW,198,6.0,9.0,89,0.00,CLR,,0.01,0.0,WeatherDisplay:10.37,2013-02-11 00:40:00,
2013-02-11 02:50:00,46.0,42.6,29.84,SSW,204,6.0,10.0,88,0.00,CLR,,0.01,0.0,WeatherDisplay:10.37,2013-02-11 00:50:00,
2013-02-11 03:00:00,46.1,42.7,29.84,SW,216,5.0,12.0,88,0.00,CLR,,0.01,0.0,WeatherDisplay:10.37,2013-02-11 01:00:00,
2013-02-11 03:10:00,45.8,42.7,29.84,WSW,257,3.0,7.0,89,0.00,CLR,,0.01,0.0,WeatherDisplay:10.37,2013-02-11 01:10:00,
2013-02-11 03:20:00,45.4,42.6,29.84,WSW,256,5.0,6.0,90,0.00,CLR,,0.01,0.0,WeatherDisplay:10.37,2013-02-11 01:20:00,
2013-02-11 03:30:00,45.5,42.7,29.84,WSW,249,3.0,6.0,90,0.00,CLR,,0.01,0.0,WeatherDisplay:10.37,2013-02-11 01:30:00,
2013-02-11 03:40:00,45.6,42.8,29.83,SW,219,5.0,8.0,90,0.00,CLR,,0.01,0.0,WeatherDisplay:10.37,2013-02-11 01:40:00,
2013-02-11 03:50:00,45.7,42.9,29.83,SW,215,3.0,8.0,90,0.00,CLR,,0.01,0.0,WeatherDisplay:10.37,2013-02-11 01:50:00,
2013-02-11 04:00:00,45.5,42.8,29.83,WSW,240,0.0,6.0,90,0.00,CLR,,0.01,0.0,WeatherDisplay:10.37,2013-02-11 02:00:00,
2013-02-11 04:10:00,45.1,42.6,29.83,West,269,0.0,2.0,91,0.00,CLR,,0.01,0.0,WeatherDisplay:10.37,2013-02-11 02:10:00,
2013-02-11 04:20:00,45.1,42.6,29.83,West,269,0.0,1.0,91,0.00,CLR,,0.01,0.0,WeatherDisplay:10.37,2013-02-11 02:20:00,
2013-02-11 04:30:00,45.0,42.5,29.83,NNW,330,0.0,3.0,91,0.00,CLR,,0.01,0.0,WeatherDisplay:10.37,2013-02-11 02:30:00,
2013-02-11 04:40:00,44.8,42.6,29.83,NNW,327,1.0,4.0,92,0.00,CLR,,0.01,0.0,WeatherDisplay:10.37,2013-02-11 02:40:00,
2013-02-11 04:50:00,44.4,42.5,29.84,NW,324,1.0,2.0,93,0.00,CLR,,0.01,0.0,WeatherDisplay:10.37,2013-02-11 02:50:00,
2013-02-11 05:00:00,44.4,42.8,29.84,NW,311,2.0,4.0,94,0.00,CLR,,0.01,0.0,WeatherDisplay:10.37,2013-02-11 03:00:00,
2013-02-11 05:10:00,44.4,42.8,29.84,WNW,295,1.0,4.0,94,0.00,CLR,,0.01,0.0,WeatherDisplay:10.37,2013-02-11 03:10:00,
2013-02-11 05:20:00,44.5,42.9,29.84,WNW,283,1.0,5.0,94,0.00,CLR,,0.01,0.0,WeatherDisplay:10.37,2013-02-11 03:20:00,
2013-02-11 05:30:00,44.4,43.0,29.84,West,269,0.0,3.0,95,0.00,CLR,,0.01,0.0,WeatherDisplay:10.37,2013-02-11 03:30:00,
2013-02-11 05:40:00,44.3,43.0,29.84,West,274,1.0,4.0,95,0.00,CLR,,0.01,0.0,WeatherDisplay:10.37,2013-02-11 03:40:00,
2013-02-11 05:50:00,44.3,43.0,29.84,West,277,0.0,3.0,95,0.00,CLR,,0.01,0.0,WeatherDisplay:10.37,2013-02-11 03:50:00,
2013-02-11 06:00:00,44.2,42.9,29.84,West,270,0.0,6.0,95,0.00,CLR,,0.01,0.0,WeatherDisplay:10.37,2013-02-11 04:00:00,
2013-02-11 06:10:00,44.1,42.8,29.84,West,269,0.0,3.0,95,0.00,CLR,,0.01,0.0,WeatherDisplay:10.37,2013-02-11 04:10:00,
2013-02-11 06:20:00,44.1,43.0,29.83,West,269,1.0,3.0,96,0.00,,,0.01,0.0,WeatherDisplay:10.37,2013-02-11 04:20:00,
2013-02-11 06:30:00,44.1,43.0,29.83,West,269,0.0,2.0,96,0.00,,,0.01,0.0,WeatherDisplay:10.37,2013-02-11 04:30:00,
2013-02-11 06:40:00,44.1,43.0,29.83,West,269,0.0,2.0,96,0.00,,,0.01,0.0,WeatherDisplay:10.37,2013-02-11 04:40:00,
2013-02-11 06:50:00,44.1,43.0,29.83,West,269,1.0,2.0,96,0.00,,,0.01,0.0,WeatherDisplay:10.37,2013-02-11 04:50:00,
2013-02-11 07:00:00,44.0,42.9,29.83,West,269,0.0,3.0,96,0.00,,,0.01,0.0,WeatherDisplay:10.37,2013-02-11 05:00:00,
2013-02-11 07:10:00,44.1,43.0,29.84,West,269,1.0,3.0,96,0.00,,,0.01,0.0,WeatherDisplay:10.37,2013-02-11 05:10:00,
2013-02-11 07:20:00,44.2,43.1,29.84,WNW,283,2.0,5.0,96,0.00,,,0.01,0.0,WeatherDisplay:10.37,2013-02-11 05:20:00,
2013-02-11 07:30:00,44.1,43.0,29.84,North,355,5.0,8.0,96,0.00,,,0.01,0.0,WeatherDisplay:10.37,2013-02-11 05:30:00,
2013-02-11 07:40:00,44.0,42.9,29.84,North,358,5.0,10.0,96,0.00,,,0.01,0.0,WeatherDisplay:10.37,2013-02-11 05:40:00,
2013-02-11 07:50:00,43.8,42.7,29.85,North,4,5.0,10.0,96,0.00,,,0.01,5.0,WeatherDisplay:10.37,2013-02-11 05:50:00,
2013-02-11 08:00:00,43.7,42.6,29.85,North,5,6.0,10.0,96,0.00,,,0.01,14.0,WeatherDisplay:10.37,2013-02-11 06:00:00,
2013-02-11 08:10:00,43.7,42.6,29.86,NNE,13,3.0,10.0,96,0.00,,,0.01,12.0,WeatherDisplay:10.37,2013-02-11 06:10:00,
2013-02-11 08:20:00,43.8,42.7,29.86,North,10,2.0,10.0,96,0.00,,,0.01,18.0,WeatherDisplay:10.37,2013-02-11 06:20:00,
2013-02-11 08:30:00,43.9,42.8,29.86,North,8,6.0,10.0,96,0.00,,,0.01,12.0,WeatherDisplay:10.37,2013-02-11 06:30:00,
2013-02-11 08:40:00,44.0,42.9,29.86,NNE,19,7.0,10.0,96,0.00,,,0.01,14.0,WeatherDisplay:10.37,2013-02-11 06:40:00,
2013-02-11 08:50:00,43.9,42.8,29.87,NNE,16,5.0,10.0,96,0.00,,,0.01,14.0,WeatherDisplay:10.37,2013-02-11 06:50:00,
2013-02-11 09:00:00,43.8,42.7,29.87,NNE,20,9.0,13.0,96,0.00,OVC,,0.01,18.0,WeatherDisplay:10.37,2013-02-11 07:00:00,
2013-02-11 09:10:00,43.8,42.7,29.87,NNE,16,6.0,10.0,96,0.00,OVC,,0.01,12.0,WeatherDisplay:10.37,2013-02-11 07:10:00,
2013-02-11 09:20:00,43.8,42.7,29.87,North,9,6.0,10.0,96,0.00,OVC,,0.01,25.0,WeatherDisplay:10.37,2013-02-11 07:20:00,
2013-02-11 09:30:00,43.8,42.7,29.87,NNE,15,5.0,12.0,96,0.00,OVC,,0.01,30.0,WeatherDisplay:10.37,2013-02-11 07:30:00,
2013-02-11 09:40:00,43.8,42.7,29.87,NNE,17,9.0,15.0,96,0.00,OVC,,0.01,49.0,WeatherDisplay:10.37,2013-02-11 07:40:00,
2013-02-11 09:50:00,43.7,42.6,29.87,NNE,18,7.0,15.0,96,0.00,OVC,,0.01,49.0,WeatherDisplay:10.37,2013-02-11 07:50:00,
2013-02-11 10:00:00,43.6,42.5,29.87,NNE,15,9.0,14.0,96,0.00,OVC,,0.01,47.0,WeatherDisplay:10.37,2013-02-11 08:00:00,
2013-02-11 10:10:00,43.6,42.5,29.87,NNE,18,7.0,14.0,96,0.00,OVC,,0.01,46.0,WeatherDisplay:10.37,2013-02-11 08:10:00,
2013-02-11 10:20:00,43.6,42.5,29.87,NNE,19,8.0,13.0,96,0.01,RA,,0.02,46.0,WeatherDisplay:10.37,2013-02-11 08:20:00,
2013-02-11 10:30:00,43.5,42.7,29.87,North,9,10.0,14.0,97,0.00,OVC,,0.02,37.0,WeatherDisplay:10.37,2013-02-11 08:30:00,
2013-02-11 10:40:00,43.6,42.8,29.87,North,10,6.0,15.0,97,0.00,OVC,,0.02,33.0,WeatherDisplay:10.37,2013-02-11 08:40:00,
2013-02-11 10:50:00,43.5,42.7,29.87,NNE,14,7.0,15.0,97,0.00,OVC,,0.02,33.0,WeatherDisplay:10.37,2013-02-11 08:50:00,
2013-02-11 11:00:00,43.3,42.5,29.88,NNE,14,9.0,17.0,97,0.00,OVC,,0.02,35.0,WeatherDisplay:10.37,2013-02-11 09:00:00,
2013-02-11 11:10:00,43.1,42.0,29.88,North,6,14.0,18.0,96,0.00,OVC,,0.02,44.0,WeatherDisplay:10.37,2013-02-11 09:10:00,
2013-02-11 11:20:00,43.0,42.2,29.88,NNE,12,8.0,18.0,97,0.00,OVC,,0.02,40.0,WeatherDisplay:10.37,2013-02-11 09:20:00,
2013-02-11 11:30:00,42.9,42.1,29.88,North,6,8.0,17.0,97,0.00,OVC,,0.02,46.0,WeatherDisplay:10.37,2013-02-11 09:30:00,
2013-02-11 11:40:00,42.9,42.1,29.88,North,11,7.0,14.0,97,0.00,OVC,,0.02,46.0,WeatherDisplay:10.37,2013-02-11 09:40:00,
2013-02-11 11:50:00,42.6,41.8,29.88,NNE,15,14.0,22.0,97,0.00,OVC,,0.02,44.0,WeatherDisplay:10.37,2013-02-11 09:50:00,
2013-02-11 12:00:00,42.4,41.6,29.87,North,7,13.0,20.0,97,0.00,OVC,,0.02,46.0,WeatherDisplay:10.37,2013-02-11 10:00:00,
2013-02-11 12:10:00,42.3,41.5,29.87,North,9,13.0,22.0,97,0.00,OVC,,0.02,47.0,WeatherDisplay:10.37,2013-02-11 10:10:00,
2013-02-11 12:20:00,42.2,41.4,29.87,NNE,16,10.0,21.0,97,0.00,OVC,,0.02,53.0,WeatherDisplay:10.37,2013-02-11 10:20:00,
2013-02-11 12:30:00,42.0,41.2,29.87,North,7,10.0,20.0,97,0.00,OVC,,0.02,42.0,WeatherDisplay:10.37,2013-02-11 10:30:00,
2013-02-11 12:40:00,41.8,41.0,29.87,NNE,14,14.0,20.0,97,0.00,OVC,,0.02,42.0,WeatherDisplay:10.37,2013-02-11 10:40:00,
2013-02-11 12:50:00,41.8,41.0,29.88,NNE,15,13.0,20.0,97,0.00,OVC,,0.02,35.0,WeatherDisplay:10.37,2013-02-11 10:50:00,
2013-02-11 13:00:00,41.6,40.9,29.88,NNE,16,13.0,20.0,97,0.00,OVC,,0.02,40.0,WeatherDisplay:10.37,2013-02-11 11:00:00,
2013-02-11 13:10:00,41.4,40.6,29.88,North,8,13.0,20.0,97,0.00,OVC,,0.02,46.0,WeatherDisplay:10.37,2013-02-11 11:10:00,
2013-02-11 13:20:00,41.1,40.3,29.88,NNE,14,14.0,18.0,97,0.00,OVC,,0.02,53.0,WeatherDisplay:10.37,2013-02-11 11:20:00,
2013-02-11 13:30:00,40.9,40.1,29.88,North,8,10.0,16.0,97,0.00,OVC,,0.02,40.0,WeatherDisplay:10.37,2013-02-11 11:30:00,
2013-02-11 13:40:00,40.8,40.0,29.88,NNE,13,10.0,18.0,97,0.00,OVC,,0.02,35.0,WeatherDisplay:10.37,2013-02-11 11:40:00,
2013-02-11 13:50:00,40.8,40.0,29.88,North,4,7.0,16.0,97,0.00,OVC,,0.02,42.0,WeatherDisplay:10.37,2013-02-11 11:50:00,
2013-02-11 14:00:00,40.8,40.0,29.88,North,9,10.0,17.0,97,0.00,OVC,,0.02,54.0,WeatherDisplay:10.37,2013-02-11 12:00:00,
2013-02-11 14:10:00,40.8,40.0,29.88,NNE,17,9.0,16.0,97,0.01,RA,,0.02,42.0,WeatherDisplay:10.37,2013-02-11 12:10:00,
2013-02-11 14:20:00,40.8,40.0,29.88,NNE,13,8.0,15.0,97,0.00,OVC,,0.02,30.0,WeatherDisplay:10.37,2013-02-11 12:20:00,
2013-02-11 14:30:00,40.8,40.0,29.89,North,4,10.0,17.0,97,0.00,OVC,,0.02,30.0,WeatherDisplay:10.37,2013-02-11 12:30:00,
2013-02-11 14:40:00,40.8,40.0,29.89,NNE,14,10.0,15.0,97,0.01,RA,,0.03,35.0,WeatherDisplay:10.37,2013-02-11 12:40:00,
2013-02-11 14:50:00,40.8,39.7,29.89,North,3,9.0,15.0,96,0.01,RA,,0.04,37.0,WeatherDisplay:10.37,2013-02-11 12:50:00,
2013-02-11 15:00:00,40.8,39.7,29.89,North,4,9.0,14.0,96,0.00,OVC,,0.04,30.0,WeatherDisplay:10.37,2013-02-11 13:00:00,
2013-02-11 15:10:00,40.7,39.6,29.89,North,2,7.0,15.0,96,0.00,OVC,,0.04,28.0,WeatherDisplay:10.37,2013-02-11 13:10:00,
2013-02-11 15:20:00,40.8,39.7,29.90,North,5,6.0,13.0,96,0.00,OVC,,0.04,32.0,WeatherDisplay:10.37,2013-02-11 13:20:00,
2013-02-11 15:30:00,40.8,39.7,29.90,North,4,6.0,13.0,96,0.00,OVC,,0.04,18.0,WeatherDisplay:10.37,2013-02-11 13:30:00,
2013-02-11 15:40:00,40.7,39.6,29.90,North,359,7.0,14.0,96,0.00,OVC,,0.04,19.0,WeatherDisplay:10.37,2013-02-11 13:40:00,
2013-02-11 15:50:00,40.7,39.6,29.91,North,5,9.0,16.0,96,0.00,OVC,,0.04,19.0,WeatherDisplay:10.37,2013-02-11 13:50:00,
2013-02-11 16:00:00,40.7,39.6,29.91,North,9,7.0,14.0,96,0.00,,,0.04,19.0,WeatherDisplay:10.37,2013-02-11 14:00:00,
2013-02-11 16:10:00,40.7,39.7,29.91,North,10,7.0,12.0,96,0.00,,,0.04,16.0,WeatherDisplay:10.37,2013-02-11 14:10:00,
2013-02-11 16:20:00,40.8,39.7,29.91,North,353,10.0,15.0,96,0.00,,,0.04,19.0,WeatherDisplay:10.37,2013-02-11 14:20:00,
2013-02-11 16:30:00,40.7,39.7,29.92,North,355,8.0,15.0,96,0.00,,,0.04,9.0,WeatherDisplay:10.37,2013-02-11 14:30:00,
2013-02-11 16:40:00,40.8,39.7,29.92,North,6,7.0,12.0,96,0.00,,,0.04,11.0,WeatherDisplay:10.37,2013-02-11 14:40:00,
2013-02-11 16:50:00,40.8,39.7,29.92,North,350,7.0,12.0,96,0.00,,,0.04,7.0,WeatherDisplay:10.37,2013-02-11 14:50:00,
2013-02-11 17:00:00,40.6,39.5,29.92,North,353,10.0,17.0,96,0.01,RA,,0.05,7.0,WeatherDisplay:10.37,2013-02-11 15:00:00,
2013-02-11 17:10:00,40.6,39.5,29.93,NNW,348,6.0,14.0,96,0.00,,,0.05,0.0,WeatherDisplay:10.37,2013-02-11 15:10:00,
2013-02-11 17:20:00,40.6,39.6,29.94,NNW,345,5.0,13.0,96,0.00,,,0.05,0.0,WeatherDisplay:10.37,2013-02-11 15:20:00,
2013-02-11 17:30:00,40.6,39.5,29.94,NNW,341,7.0,14.0,96,0.00,,,0.05,0.0,WeatherDisplay:10.37,2013-02-11 15:30:00,
2013-02-11 17:40:00,40.6,39.5,29.95,NNW,342,5.0,14.0,96,0.00,,,0.05,0.0,WeatherDisplay:10.37,2013-02-11 15:40:00,
2013-02-11 17:50:00,40.6,39.5,29.95,NNW,339,7.0,15.0,96,0.00,,,0.05,0.0,WeatherDisplay:10.37,2013-02-11 15:50:00,
2013-02-11 18:00:00,40.5,39.4,29.96,NNW,348,8.0,14.0,96,0.00,,,0.05,0.0,WeatherDisplay:10.37,2013-02-11 16:00:00,
2013-02-11 18:10:00,40.5,39.4,29.96,NNW,334,5.0,13.0,96,0.00,,,0.05,0.0,WeatherDisplay:10.37,2013-02-11 16:10:00,
2013-02-11 18:20:00,40.4,39.4,29.97,NNW,343,8.0,15.0,96,0.00,,,0.05,0.0,WeatherDisplay:10.37,2013-02-11 16:20:00,
2013-02-11 18:30:00,40.3,39.3,29.97,NNW,336,8.0,15.0,96,0.01,RA,,0.05,0.0,WeatherDisplay:10.37,2013-02-11 16:30:00,
2013-02-11 18:40:00,40.2,39.2,29.98,NNW,332,8.0,16.0,96,0.00,CLR,,0.05,0.0,WeatherDisplay:10.37,2013-02-11 16:40:00,
2013-02-11 18:50:00,40.2,39.1,29.98,NW,323,7.0,14.0,96,0.00,,,0.05,0.0,WeatherDisplay:10.37,2013-02-11 16:50:00,
2013-02-11 19:00:00,40.1,39.1,29.98,NNW,329,7.0,14.0,96,0.00,,,0.05,0.0,WeatherDisplay:10.37,2013-02-11 17:00:00,
2013-02-11 19:10:00,40.1,39.1,29.99,NNW,329,7.0,14.0,96,0.00,,,0.05,0.0,WeatherDisplay:10.37,2013-02-11 17:10:00,
2013-02-11 19:20:00,40.0,39.0,29.99,NNW,337,6.0,15.0,96,0.00,,,0.05,0.0,WeatherDisplay:10.37,2013-02-11 17:20:00,
2013-02-11 19:30:00,40.0,39.0,29.99,NNW,330,5.0,14.0,96,0.00,,,0.05,0.0,WeatherDisplay:10.37,2013-02-11 17:30:00,
2013-02-11 19:40:00,39.9,38.9,30.00,NW,322,8.0,15.0,96,0.01,RA,,0.06,0.0,WeatherDisplay:10.37,2013-02-11 17:40:00,
2013-02-11 19:50:00,40.0,39.0,30.00,NNW,327,6.0,15.0,96,0.01,RA,,0.07,0.0,WeatherDisplay:10.37,2013-02-11 17:50:00,
2013-02-11 20:00:00,40.0,39.0,30.01,NNW,331,3.0,13.0,96,0.00,,,0.07,0.0,WeatherDisplay:10.37,2013-02-11 18:00:00,
2013-02-11 20:10:00,40.0,38.9,30.01,NNW,333,8.0,16.0,96,0.01,RA,,0.08,0.0,WeatherDisplay:10.37,2013-02-11 18:10:00,
2013-02-11 20:20:00,39.9,38.9,30.02,NNW,333,8.0,14.0,96,0.01,RA,,0.09,0.0,WeatherDisplay:10.37,2013-02-11 18:20:00,
2013-02-11 20:30:00,40.0,39.0,30.02,NNW,331,7.0,15.0,96,0.02,RA,,0.10,0.0,WeatherDisplay:10.37,2013-02-11 18:30:00,
2013-02-11 20:40:00,40.0,39.0,30.02,NNW,338,7.0,14.0,96,0.00,,,0.10,0.0,WeatherDisplay:10.37,2013-02-11 18:40:00,
2013-02-11 20:50:00,40.0,39.0,30.03,NNW,342,7.0,12.0,96,0.02,RA,,0.12,0.0,WeatherDisplay:10.37,2013-02-11 18:50:00,
2013-02-11 21:00:00,39.9,38.9,30.03,NNW,337,5.0,12.0,96,0.00,,,0.12,0.0,WeatherDisplay:10.37,2013-02-11 19:00:00,
2013-02-11 21:10:00,40.0,39.0,30.04,NNW,333,6.0,12.0,96,0.01,RA,,0.13,0.0,WeatherDisplay:10.37,2013-02-11 19:10:00,
2013-02-11 21:20:00,40.0,39.0,30.04,NNW,338,6.0,12.0,96,0.00,CLR,,0.13,0.0,WeatherDisplay:10.37,2013-02-11 19:20:00,
2013-02-11 21:30:00,40.0,38.7,30.04,NNW,333,3.0,12.0,95,0.00,CLR,,0.13,0.0,WeatherDisplay:10.37,2013-02-11 19:30:00,
2013-02-11 21:40:00,40.0,38.7,30.04,NNW,330,6.0,12.0,95,0.00,CLR,,0.13,0.0,WeatherDisplay:10.37,2013-02-11 19:40:00,
2013-02-11 21:50:00,40.0,38.7,30.05,NNW,334,6.0,12.0,95,0.00,CLR,,0.13,0.0,WeatherDisplay:10.37,2013-02-11 19:50:00,
2013-02-11 22:00:00,40.0,38.7,30.05,NNW,346,7.0,13.0,95,0.00,CLR,,0.13,0.0,WeatherDisplay:10.37,2013-02-11 20:00:00,
2013-02-11 22:10:00,40.1,38.5,30.05,NNW,341,5.0,13.0,94,0.00,CLR,,0.13,0.0,WeatherDisplay:10.37,2013-02-11 20:10:00,
2013-02-11 22:20:00,40.1,38.5,30.06,NNW,341,6.0,12.0,94,0.00,CLR,,0.13,0.0,WeatherDisplay:10.37,2013-02-11 20:20:00,
2013-02-11 22:30:00,40.1,38.5,30.06,NNW,328,5.0,12.0,94,0.00,CLR,,0.13,0.0,WeatherDisplay:10.37,2013-02-11 20:30:00,
2013-02-11 22:40:00,40.2,38.3,30.06,NNW,331,2.0,12.0,93,0.00,CLR,,0.13,0.0,WeatherDisplay:10.37,2013-02-11 20:40:00,
2013-02-11 22:50:00,40.1,38.2,30.06,NW,325,5.0,12.0,93,0.00,CLR,,0.13,0.0,WeatherDisplay:10.37,2013-02-11 20:50:00,
2013-02-11 23:00:00,40.1,38.2,30.06,NNW,328,6.0,10.0,93,0.00,CLR,,0.13,0.0,WeatherDisplay:10.37,2013-02-11 21:00:00,
2013-02-11 23:10:00,40.1,38.2,30.06,North,349,5.0,10.0,93,0.00,CLR,,0.13,0.0,WeatherDisplay:10.37,2013-02-11 21:10:00,
2013-02-11 23:20:00,40.0,37.9,30.06,NNW,334,5.0,9.0,92,0.00,CLR,,0.13,0.0,WeatherDisplay:10.37,2013-02-11 21:20:00,
2013-02-11 23:30:00,40.0,37.8,30.07,NW,326,5.0,9.0,92,0.00,CLR,,0.13,0.0,WeatherDisplay:10.37,2013-02-11 21:30:00,
2013-02-11 23:40:00,40.0,37.9,30.08,NNW,328,0.0,9.0,92,0.00,CLR,,0.13,0.0,WeatherDisplay:10.37,2013-02-11 21:40:00,
2013-02-11 23:50:00,40.0,37.9,30.08,NNW,336,2.0,7.0,92,0.00,CLR,,0.13,0.0,WeatherDisplay:10.37,2013-02-11 21:50:00,